User: anonymous   Login
Location: Unspecified
(0.0000°N, 0.0000°E)
Time: 10:51:29
(UTC+00:00)
Language:

AISSAT 1 - Orbit

View from above orbital plane
View from above orbital plane
View from above satellite
View from above satellite

Ground track
Ground track

The orbit data is extracted from the following two-line orbital elements,

1 36797U 10035C   18200.40894166 +.00000140 +00000-0 +22461-4 0  9994
2 36797 098.0789 324.3324 0012197 136.1233 224.0953 14.86053593434162
Epoch (UTC): 19 July 2018 09:48:52
Eccentricity: 0.0012197
inclination: 98.0789°
perigee height: 602 km
apogee height: 619 km
right ascension of ascending node: 324.3324°
argument of perigee: 136.1233°
revolutions per day: 14.86053593
mean anomaly at epoch: 224.0953°
orbit number at epoch: 43416

The dashed part of the orbit path shows where the satellite is in the earth's shadow,  

DLR